Lexington Weather

Lexington, Massachusetts, USA

47°F
9/19/2020 8:54am 
  • Lexington Conditions: Clear
  • Temperature: 46.6°F / 8.1°CWarmer 3.3°F than last hour.
  • Dew Point: 35.8°FIncreased 0.2°Fsince last hour.
  • Relative Humidity: 66%Decreased 8.0% since last hour.
  • Wind: Wind from ENE ENE 1 mph, 10-min avg: 1 mph, gust: 2 mph
  • Barometer: 30.26 inRising 0.02  inHg/hr Rising Slowly
  • Visibility: 10 miles
  • Rain Today: 0.00 in
  •   
Southeast Middlesex County - Special Weather Statement
 - SEE ALL NEARBY ALERTS -

Regional Weather Roundup
for Boston / Norton, MA

        
000
ASUS41 KBOX 130004
RWRBOX

REGIONAL WEATHER ROUNDUP
NATIONAL WEATHER SERVICE BOSTON/NORTON MA
800 PM EDT SAT SEP 12 2020

NOTE:  "FAIR" INDICATES FEW OR NO CLOUDS BELOW 12,000 FEET WITH NO 
SIGNIFICANT WEATHER AND/OR OBSTRUCTIONS TO VISIBILITY.

MAZALL-130100-
EASTERN MASSACHUSETTS
  
CITY           SKY/WX    TMP DP  RH WIND       PRES   REMARKS
BOSTON         MOCLDY    59  47  64 E10       30.31F                  
6HR MIN TEMP:  59; 6HR MAX TEMP:  67;                                

BEVERLY        CLEAR     60  47  61 E5        30.30F                  
LAWRENCE       CLEAR     59  49  69 E6        30.33S                  
BEDFORD        CLEAR     58  47  66 E5        30.30S                  
BLUE HILL        N/A     56  47  71 E10       30.29F                  
NORWOOD        CLEAR     56  47  71 E3        30.30F                  
MARSHFIELD     PTCLDY    61  48  63 E7        30.30F                  
PLYMOUTH       PTCLDY    55  46  71 E3        30.31S                  
TAUNTON        CLEAR     51  46  83 CALM      30.30S                  
NEW BEDFORD    CLEAR     57  48  72 NE5       30.29F                  
$$

MAZALL-130100-
CAPE COD AND THE ISLANDS
  
CITY           SKY/WX    TMP DP  RH WIND       PRES   REMARKS
FALMOUTH       PTCLDY    55  48  76 NE6       30.30S                  
HYANNIS        PTCLDY    56  50  80 NE3       30.29F                  
CHATHAM        PTCLDY    61  52  72 E7        30.31F                  
PROVINCETOWN   PTCLDY    57  47  69 E6        30.32F                  
NANTUCKET      PTCLDY    60  53  77 E8        30.29S                  
MARTHAS VNYRD  PTCLDY    59  53  80 E7        30.29F                  
$$
 
MAZALL-130100-
CENTRAL AND WESTERN MASSACHUSETTS
  
CITY           SKY/WX    TMP DP  RH WIND       PRES   REMARKS
WORCESTER      CLEAR     59  47  64 E6        30.31R                  
6HR MIN TEMP:  59; 6HR MAX TEMP:  67;                                

FITCHBURG      CLEAR     60  47  61 SE5       30.31S                  
ORANGE         CLEAR     58  50  75 CALM      30.29S                  
SPRINGFIELD    PTCLDY    63  51  66 E7        30.26R                  
WESTFIELD      CLEAR     62  54  74 CALM      30.26R                  
NORTH ADAMS    CLEAR     56  51  84 CALM      30.26S                  
PITTSFIELD     CLEAR     59  51  75 SE3       30.25F                  
$$
 
RIZALL-130100-
RHODE ISLAND
  
CITY           SKY/WX    TMP DP  RH WIND       PRES   REMARKS
PROVIDENCE     PTCLDY    62  46  55 E9        30.30S                  
6HR MIN TEMP:  62; 6HR MAX TEMP:  73;                                

NEWPORT        CLEAR     60  49  66 E6        30.29S                  
BLOCK ISLAND   CLEAR     60  52  74 E9        30.29S                  
SMITHFIELD     CLEAR     57  50  77 E7        30.31R                  
WESTERLY       CLEAR     59  47  64 NE5       30.29S                  
$$
 
CTZALL-130100-
CONNECTICUT
  
CITY           SKY/WX    TMP DP  RH WIND       PRES   REMARKS
BRADLEY INTL   PTCLDY    64  53  67 S9        30.26R                  
6HR MIN TEMP:  64; 6HR MAX TEMP:  75;                                

HARTFORD       CLEAR     64  53  67 S5        30.27R                  
BRIDGEPORT     CLEAR     66  50  56 SE8       30.26S                  
DANBURY        CLEAR     59  53  80 S3        30.27F                  
GROTON         CLEAR     63  52  67 E9        30.27S                  
NEW HAVEN      CLEAR     67  52  58 SE9       30.27S                  
CHESTER        NOT AVBL                                               
MERIDEN        CLEAR     61  52  72 CALM      30.27S                  
WILLIMANTIC    CLEAR     62  50  64 CALM      30.28S                  
OXFORD         CLEAR     59  53  80 SE5       30.28F                  
$$

MEZ002-015-021-024-NHZ003-005-008-011-012-014-VTZ005-008-130100-
NORTHERN NEW ENGLAND
  
CITY           SKY/WX    TMP DP  RH WIND       PRES   REMARKS
PORTLAND ME    PTCLDY    59  48  67 CALM      30.32F                  
6HR MIN TEMP:  58; 6HR MAX TEMP:  68;                                

BANGOR ME      PTCLDY    57  44  62 S8        30.31S                  
CONCORD NH     CLEAR     58  47  66 SE6       30.30S                  
MANCHESTER NH  MOCLDY    61  50  67 SE8       30.29S                  
NASHUA NH      PTCLDY    61  51  70 SE7       30.32R                  
PORTSMOUTH NH  MOCLDY    57  47  69 SE7       30.30F                  
JAFFREY NH     CLEAR     57  47  69 CALM      30.30S                  
KEENE NH       CLEAR     55  52  89 CALM      30.28S                  
BURLINGTON VT  MOCLDY    65  50  58 S8        30.20S                  
MT. WASHINGTON NOT AVBL                                               
$$

NYZ052-076-130100-
EASTERN NEW YORK
  
CITY           SKY/WX    TMP DP  RH WIND       PRES   REMARKS
ALBANY         MOCLDY    61  53  75 CALM      30.23F                  
6HR MIN TEMP:  60; 6HR MAX TEMP:  68;                                

NEW YORK CITY  PTCLDY    67  49  52 SE16      30.24S                  
6HR MIN TEMP:  67; 6HR MAX TEMP:  73;                                

$$
 
ANZALL-130100-
MARINE OBSERVATIONS
  
STATION/POSITION TIME  TEMP    WIND        PRES    VSBY  WAVE
                       AIR SEA DIR/SP/G                  HT/PER
                 (UTC) (F)     (DEG/KT/KT) (MB)    (MI)  (FT/S)
BOSTON BUOY      2350   63 65  110/ 10/ 12 1025.1F         3/ 6
BUZZARDS BAY     2300           90/ 15/ 17 1026.7F
NANTUCKET SOUND  2350      71   80/ 14/ 16   N/A           2/ 3
MASS BAY-STELLWA 2304   62     160/  8/ 10 1024.5F  1 7/8  3/ 5
ISLE OF SHOALS   2300   62     150/  8/  8 1026.3F
S OF BLOCK IS    2326      70                N/A           5/ 6
$$

......................KEY.........................
  SKY/WX - SKY CONDITION/PRESENT WEATHER
  TMP    - TEMPERATURE IN FAHRENHEIT
  DWPT   - DEWPOINT IN FAHRENHEIT
  RH     - RELATIVE HUMIDITY IN PERCENT
  WIND   - DIRECTION AND SPEED IN MPH
  PRES   - MEAN SEA LEVEL PRESSURE IN INCHES OF HG
  WCI    - WIND CHILL INDEX
  VSB    - VISIBILITY IN MILES
  HX     - HEAT INDEX
  TC     - TEMPERATURE IN CELSIUS
  VRB    - VARIABLE WIND DIRECTION
  N/A    - NOT AVAILABLE
  
      

Other recent Regional Weather Roundups

Sat Sep 19, 8:04am

Sat Sep 19, 7:04am

Sat Sep 19, 6:04am

Sat Sep 19, 5:04am

Sat Sep 19, 4:04am

Sat Sep 19, 3:04am

Sat Sep 19, 2:04am

Sat Sep 19, 1:04am

Sat Sep 19, 12:04am

Fri Sep 18, 11:05pm

Fri Sep 18, 10:04pm

Fri Sep 18, 9:04pm

Fri Sep 18, 8:04pm

Fri Sep 18, 7:04pm

Fri Sep 18, 6:04pm

Fri Sep 18, 5:05pm

Fri Sep 18, 4:04pm

Fri Sep 18, 3:05pm

Fri Sep 18, 2:04pm

Fri Sep 18, 1:04pm

Fri Sep 18, 12:04pm

Fri Sep 18, 11:05am

Fri Sep 18, 10:05am

Fri Sep 18, 9:04am

Fri Sep 18, 8:04am

Fri Sep 18, 7:04am

Fri Sep 18, 6:04am

Fri Sep 18, 5:04am

Fri Sep 18, 4:04am

Fri Sep 18, 3:04am

Fri Sep 18, 2:04am

Fri Sep 18, 1:04am

Fri Sep 18, 12:04am

Thu Sep 17, 11:05pm

Thu Sep 17, 10:04pm

Thu Sep 17, 9:04pm

Thu Sep 17, 8:05pm

Thu Sep 17, 7:04pm

Thu Sep 17, 6:04pm

Thu Sep 17, 5:04pm

Thu Sep 17, 4:04pm

Thu Sep 17, 3:05pm

Thu Sep 17, 2:04pm

Thu Sep 17, 1:04pm

Thu Sep 17, 12:04pm

Thu Sep 17, 11:04am

Thu Sep 17, 10:04am

Thu Sep 17, 9:04am

Thu Sep 17, 8:04am

Thu Sep 17, 7:04am

Thu Sep 17, 6:04am

Thu Sep 17, 5:04am

Thu Sep 17, 4:04am

Thu Sep 17, 3:04am

Thu Sep 17, 2:05am

Thu Sep 17, 1:05am

Thu Sep 17, 12:04am

Wed Sep 16, 11:04pm

Wed Sep 16, 10:04pm

Wed Sep 16, 9:04pm

Wed Sep 16, 8:05pm

Wed Sep 16, 7:04pm

Wed Sep 16, 6:04pm

Wed Sep 16, 5:04pm

Wed Sep 16, 4:04pm

Wed Sep 16, 3:04pm

Wed Sep 16, 2:04pm

Wed Sep 16, 1:04pm

Wed Sep 16, 12:04pm

Wed Sep 16, 11:04am

Wed Sep 16, 10:04am

Wed Sep 16, 9:04am

Wed Sep 16, 8:04am

Wed Sep 16, 7:04am

Wed Sep 16, 6:04am

Wed Sep 16, 5:04am

Wed Sep 16, 4:04am

Wed Sep 16, 3:04am

Wed Sep 16, 2:04am

Wed Sep 16, 1:04am

Wed Sep 16, 12:05am

Tue Sep 15, 11:04pm

Tue Sep 15, 10:04pm

Tue Sep 15, 9:04pm

Tue Sep 15, 8:04pm

Tue Sep 15, 7:04pm

Tue Sep 15, 6:04pm

Tue Sep 15, 5:04pm

Tue Sep 15, 4:05pm

Tue Sep 15, 3:04pm

Tue Sep 15, 2:04pm

Tue Sep 15, 1:04pm

Tue Sep 15, 12:04pm

Tue Sep 15, 11:04am

Tue Sep 15, 10:04am

Tue Sep 15, 9:04am

Tue Sep 15, 8:04am

Tue Sep 15, 7:04am

Tue Sep 15, 6:04am

Tue Sep 15, 5:04am

Tue Sep 15, 4:04am

Tue Sep 15, 3:04am

Tue Sep 15, 2:04am

Tue Sep 15, 1:04am

Tue Sep 15, 12:05am

Mon Sep 14, 11:04pm

Mon Sep 14, 10:04pm

Mon Sep 14, 9:04pm

Mon Sep 14, 8:04pm

Mon Sep 14, 7:04pm

Mon Sep 14, 6:04pm

Mon Sep 14, 5:04pm

Mon Sep 14, 4:05pm

Mon Sep 14, 3:04pm

Mon Sep 14, 2:05pm

Mon Sep 14, 1:04pm

Mon Sep 14, 12:04pm

Mon Sep 14, 11:04am

Mon Sep 14, 10:05am

Mon Sep 14, 9:04am

Mon Sep 14, 8:04am

Mon Sep 14, 7:04am

Mon Sep 14, 6:04am

Mon Sep 14, 5:04am

Mon Sep 14, 4:04am

Mon Sep 14, 3:04am

Mon Sep 14, 2:04am

Mon Sep 14, 1:04am

Mon Sep 14, 12:04am

Sun Sep 13, 11:05pm

Sun Sep 13, 10:04pm

Sun Sep 13, 9:04pm

Sun Sep 13, 8:04pm

Sun Sep 13, 7:05pm

Sun Sep 13, 6:05pm

Sun Sep 13, 5:05pm

Sun Sep 13, 4:04pm

Sun Sep 13, 3:04pm

Sun Sep 13, 2:04pm

Sun Sep 13, 1:04pm

Sun Sep 13, 12:04pm

Sun Sep 13, 11:05am

Sun Sep 13, 10:04am

Sun Sep 13, 9:04am

Sun Sep 13, 8:04am

Sun Sep 13, 7:04am

Sun Sep 13, 6:04am

Sun Sep 13, 5:04am

Sun Sep 13, 4:04am

Sun Sep 13, 3:04am

Sun Sep 13, 2:04am

Sun Sep 13, 1:04am

Sun Sep 13, 12:04am

Sat Sep 12, 11:04pm

Sat Sep 12, 10:04pm

Sat Sep 12, 9:04pm

Sat Sep 12, 7:05pm

Sat Sep 12, 6:04pm

Sat Sep 12, 5:04pm

Sat Sep 12, 4:05pm

Sat Sep 12, 3:04pm

Sat Sep 12, 2:04pm

Sat Sep 12, 1:05pm

Sat Sep 12, 12:04pm

Sat Sep 12, 11:04am

Sat Sep 12, 10:04am

Sat Sep 12, 9:04am

Meta data:

ID: ea3142f7-bf72-4761-a931-892fd639dd5b
Link: https://api.weather.gov/products/ea3142f7-bf72-4761-a931-892fd639dd5b